Location: L’Aubriais
(47.9138°N, 1.7073°W)
Time: 02:17:50
(UTC+00:00)

Daily predictions for brighter satellites

Satellite Brightness Start Highest point End
(mag) Time Altitude Azimuth Time Altitude Azimuth Time Altitude Azimuth
BREEZE-M DEB (TANK) 4.3 00:00:43 10° WNW 00:04:39 89° S 00:19:09 10° ESE
Cosmos 1378 Rocket 4.0 00:04:16 33° SW 00:05:59 55° WNW 00:10:19 10° N
Cosmos 1674 Rocket 3.7 00:05:41 36° SW 00:07:17 63° WNW 00:11:36 10° N
Cosmos 2151 Rocket 4.1 00:04:38 10° NNW 00:08:51 46° W 00:10:13 34° SW
Okean 2 Rocket 3.7 00:10:19 10° NNW 00:14:35 45° W 00:16:03 33° SW
Cosmos 1898 Rocket 4.1 00:13:33 30° SSE 00:15:24 42° ESE 00:20:15 10° NE
ALOS 2 3.7 00:17:02 26° SW 00:18:19 31° W 00:22:14 10° NNW
GEOS 3 Rocket 4.4 00:16:07 10° NE 00:20:50 35° ESE 00:22:15 30° SSE
Cosmos 2074 Rocket 4.1 00:21:27 29° SSW 00:24:48 70° W 00:31:02 10° N
Cosmos 1328 4.0 00:29:42 42° SW 00:30:46 61° WNW 00:34:37 10° N
Cosmos 1606 4.0 00:30:37 10° N 00:33:51 30° ENE 00:35:21 22° ESE
Helios 1A Rocket 4.4 00:32:17 16° ESE 00:34:31 29° ENE 00:37:50 10° N
Cosmos 1869 4.4 00:34:28 10° N 00:37:55 34° ENE 00:39:31 23° ESE
CENTAUR R/B 2.7 00:35:45 20° SW 00:40:01 73° NW 00:47:15 10° NE
Cosmos 2341 Rocket 4.4 00:36:54 25° SSE 00:40:23 53° E 00:46:25 10° NNE
SL-16 R/B 2.3 00:35:04 10° NW 00:40:39 58° WSW 00:43:10 32° S
Meteor 2-11 Rocket 4.5 00:38:41 30° SSW 00:41:52 74° W 00:48:00 10° N
Cosmos 1461 2.9 00:43:00 46° S 00:43:51 57° ESE 00:47:40 10° NE
Cosmos 2237 Rocket 3.9 00:40:44 10° WNW 00:44:21 18° W 00:46:00 16° WSW
Cosmos 1680 Rocket 3.7 00:42:53 10° NNW 00:48:05 66° ENE 00:51:38 20° SE
Cosmos 2228 4.3 00:44:57 10° N 00:48:53 34° ENE 00:51:39 17° SE
Cosmos 292 Rocket 3.8 00:48:11 33° SSW 00:50:18 77° WNW 00:55:09 10° NNE
Cosmos 2227 Rocket 3.2 00:46:34 15° WSW 00:50:52 42° NW 00:56:15 10° NNE
Cosmos 2082 3.6 00:48:25 31° SSW 00:51:14 85° ESE 00:56:53 10° NNE
Cosmos 1943 3.6 00:45:50 10° NNW 00:51:26 62° ENE 00:56:23 13° SE
Cosmos 2112 Rocket 4.4 00:46:56 10° NNW 00:52:06 61° ENE 00:55:57 18° SE
Aureole 1 Rocket 3.1 00:53:40 36° SW 00:55:06 65° WNW 00:59:51 10° NNE
Resurs 1-4 Rocket 4.1 00:55:48 10° NE 00:59:31 19° E 01:03:14 10° SE
Nadezhda 3 Rocket 4.5 00:55:07 10° NNW 01:01:03 47° W 01:04:10 26° SSW
USA 238 DEB 4.4 00:59:38 23° SSE 01:02:34 35° ESE 01:08:30 10° NE
USA 238 4.4 00:59:40 23° SSE 01:02:37 35° ESE 01:08:32 10° NE
BREEZE-M DEB (TANK) 2.2 00:58:22 10° WNW 01:03:58 48° SW 01:04:15 46° SSW
BlueWalker 3 3.5 01:05:01 10° WNW 01:08:32 37° N 01:12:02 10° ENE
Cosmos 1818 3.6 01:04:03 10° NW 01:09:27 60° WSW 01:12:28 26° SSE
H-2A R/B 3.3 01:05:43 10° N 01:09:28 32° WNW 01:11:28 21° WSW
Cosmos 2218 Rocket 4.1 01:07:06 25° S 01:10:52 69° E 01:17:00 10° NNE
Cosmos 2297 Rocket 4.3 01:07:01 10° W 01:11:09 20° NW 01:15:20 10° N
Cosmos 2366 rocket 4.1 01:08:29 25° S 01:12:16 74° E 01:18:29 10° NNE
Cosmos 1544 Rocket 3.6 01:08:00 10° N 01:12:28 78° E 01:14:43 28° SSE
Cosmos 372 Rocket 4.1 01:15:43 28° SW 01:18:31 70° WNW 01:23:44 10° NNE
Cosmos 2219 4.0 01:14:58 17° WSW 01:18:56 44° NW 01:24:19 10° NNE
Cosmos 858 Rocket 4.4 01:20:25 29° SSW 01:23:10 89° ESE 01:28:25 10° NNE
CZ-4C R/B 4.5 01:19:13 10° WNW 01:23:24 23° NNW 01:28:23 10° NE
Cosmos 921 Rocket 3.9 01:23:38 10° N 01:27:42 44° ENE 01:31:42 10° SE
Cosmos 1975 Rocket 3.7 01:25:49 27° SW 01:27:45 43° WNW 01:31:59 10° N
Meteor 1-11 4.4 01:25:00 26° SSW 01:28:19 70° WNW 01:34:08 10° N
Cosmos 2227 4.3 01:26:28 26° S 01:29:45 69° ESE 01:35:30 10° NNE
IDEFIX/ARIANE 42P 3.2 01:29:13 10° NNE 01:34:17 47° E 01:37:48 19° SSE
BREEZE-M DEB (TANK) 4.5 01:31:19 10° W 01:34:54 78° N 01:46:43 10° E
Cosmos 2263 Rocket 3.0 01:33:26 17° WSW 01:37:24 44° NW 01:42:44 10° NNE
NOSS 3-2 (A) 4.1 01:33:05 13° WSW 01:37:48 48° NW 01:44:02 10° NE
SL-8 Rocket 4.2 01:37:14 24° SSW 01:41:04 63° WNW 01:47:15 10° N
NOSS 3-2 (C) 3.3 01:42:25 21° SW 01:46:05 77° NW 01:52:27 10° NE
Cosmos 1606 Rocket 4.3 01:43:19 10° N 01:47:40 50° ENE 01:51:46 11° SSE
Cosmos 1937 Rocket 4.1 01:44:19 20° SW 01:47:41 48° WNW 01:52:45 10° NNE
Meteor 2-13 Rocket 4.4 01:43:44 10° N 01:49:52 88° E 01:55:06 15° S
CZ-2C R/B 3.9 01:49:10 10° NNE 01:54:15 43° E 01:58:24 14° SSE
Cosmos 1844 Rocket 2.9 01:51:37 21° S 01:55:17 64° ESE 02:00:48 10° NNE
Cosmos 1536 Rocket 3.6 01:54:56 25° SSW 01:57:29 76° W 02:01:55 10° N
SL-16 R/B 3.6 01:52:34 10° SE 01:58:26 45° ENE 02:04:18 10° N
Cosmos 1867 3.6 01:55:11 22° SSW 01:58:44 81° SE 02:04:15 10° NE
GEOS 3 Rocket 4.2 01:53:58 10° NNE 01:58:59 53° NW 02:03:19 14° WSW
Cosmos 1726 Rocket 4.3 01:57:11 10° N 02:01:33 52° ENE 02:05:51 10° SSE
MOZ.5/SAFIR/RUBIN 5/SL-8 4.0 01:59:17 22° SSW 02:02:04 52° W 02:06:36 10° NNW
Cosmos 1727 Rocket 4.0 01:57:50 10° NNW 02:04:11 76° W 02:09:39 14° S
H-2A R/B 3.4 02:03:23 10° NNE 02:07:24 78° ESE 02:10:00 21° S
Cosmos 1606 4.2 02:05:43 10° NW 02:08:18 19° W 02:09:18 17° WSW
Helios 1A Rocket 4.0 02:07:37 21° SW 02:08:49 25° W 02:12:00 10° NW
COBE Rocket 4.3 02:06:13 10° N 02:11:18 60° WNW 02:14:55 19° SSW
CZ-2D R/B 2.3 02:07:25 10° NNE 02:12:45 71° ESE 02:17:02 16° S
ALOS 3.9 02:10:43 10° NE 02:14:44 29° E 02:18:44 10° SSE
ADEOS II 2.7 02:11:23 10° NNE 02:16:31 52° E 02:21:20 11° S
Cosmos 1437 Rocket 2.9 02:16:19 22° SSW 02:18:33 56° WNW 02:22:15 10° N
CZ-2C R/B 2.6 02:15:43 12° S 02:20:40 71° WSW 02:26:07 10° NNW
Alouette 2 Rocket 4.3 02:19:17 11° S 02:23:07 42° E 02:26:32 10° NNE
USA 234 4.5 02:18:08 10° E 02:24:17 45° NNE 02:30:26 10° WNW
GRACE-FO 1 4.5 02:22:16 19° S 02:24:38 69° W 02:28:10 10° N
Cosmos 1607 4.0 02:18:40 10° NW 02:25:00 63° WSW 02:31:11 10° SSE
GRACE-FO 2 4.5 02:22:42 19° S 02:25:04 68° W 02:28:36 10° N
Cosmos 2228 4.3 02:22:29 10° NNW 02:26:00 25° W 02:28:11 17° SW
ASTEX 1 3.6 02:21:54 10° SSE 02:26:45 73° E 02:31:36 10° N
FENGYUN 3A 3.9 02:23:26 10° NNE 02:28:49 66° ESE 02:33:58 11° S
ATLAS 5 CENTAUR R/B 3.1 02:27:04 10° SSE 02:29:17 17° ESE 02:31:37 10° ENE
Cosmos 1603 4.2 02:24:29 10° NW 02:29:49 40° WSW 02:34:48 11° S
Cosmos 1812 2.8 02:26:58 10° N 02:30:32 67° ENE 02:34:04 10° SSE
CENTAUR R/B 4.4 02:26:26 10° WNW 02:32:00 29° NNW 02:38:38 10° NE
Cosmos 1943 4.4 02:30:39 10° NW 02:34:59 23° WSW 02:38:06 15° SW
Orbus 7S? 4.4 02:36:19 10° W 02:38:50 23° SW 02:42:40 10° S
Resurs 1-4 Rocket 2.2 02:34:32 10° N 02:39:48 67° WNW 02:44:25 13° SSW
NPP 4.0 02:35:42 10° N 02:40:57 53° WNW 02:45:30 14° SW
Timation 2 Rocket 4.2 02:37:21 13° SSW 02:43:22 71° ESE 02:49:40 10° NNE
Cosmos 2058 3.2 02:40:14 10° S 02:44:14 62° E 02:48:17 10° NNE
BlueWalker 3 1.9 02:43:16 10° WNW 02:47:02 84° NNE 02:50:46 10° ESE
Cosmos 1892 Rocket 3.6 02:43:30 13° SSW 02:47:29 78° W 02:51:58 10° N
Cosmos 724 4.4 02:43:29 10° NW 02:49:07 53° WSW 02:54:46 10° SSE
Cosmos 2058 Rocket 3.1 02:45:45 10° N 02:50:13 88° ENE 02:54:36 10° S
USA 238 DEB 4.0 02:47:02 10° WSW 02:53:10 58° NW 02:59:57 10° NE
USA 238 4.0 02:47:05 10° WSW 02:53:12 58° NW 03:00:00 10° NE
Envisat 4.2 02:54:40 10° NNE 02:59:27 40° E 03:04:12 10° SSE
NOSS 2-2 (C) 3.8 02:56:39 11° SSW 02:59:33 36° SE 03:02:28 10° NE
Cosmos 1544 2.5 02:58:05 10° S 03:00:39 64° E 03:03:15 10° NNE
Cosmos 1605 Rocket 4.2 02:57:01 10° S 03:03:10 76° E 03:09:16 10° NNE
Cosmos 921 Rocket 4.5 03:02:34 10° NW 03:05:32 19° W 03:08:23 10° SW
Iridium 4 Rocket 3.3 03:02:04 10° N 03:06:37 86° W 03:11:36 10° S
Cosmos 1833 Rocket 3.3 03:01:18 10° NNW 03:06:56 64° ENE 03:12:31 10° SE
Cosmos 1626 Rocket 4.0 03:07:01 10° S 03:11:22 64° E 03:15:44 10° NNE
NOSS 2-2 (D) 4.1 03:08:51 10° S 03:11:50 31° ESE 03:14:39 10° ENE
IDEFIX/ARIANE 42P 3.8 03:09:09 10° N 03:13:34 28° WNW 03:17:57 10° WSW
Meteor 1-28 Rocket 3.7 03:11:36 10° SSW 03:14:54 36° W 03:18:14 10° NNW
Cosmos 1125 Rocket 3.8 03:10:59 10° SW 03:16:10 57° WNW 03:21:25 10° NNE
Cosmos-2242 3.3 03:11:51 10° N 03:16:10 72° E 03:20:25 10° SSE
Cosmos 1934 Rocket 4.4 03:12:04 10° SSW 03:18:16 54° WNW 03:24:32 10° N
YAOGAN 6 4.4 03:17:01 10° NE 03:19:42 24° E 03:22:20 10° SSE
Cosmos 1943 Rocket 4.4 03:23:26 10° SSE 03:27:33 21° E 03:31:40 10° NE
Cosmos 1782 2.7 03:23:56 10° N 03:27:48 88° W 03:31:38 10° S
Cosmos 1378 3.7 03:25:10 10° N 03:28:23 53° ENE 03:31:34 10° SSE
USA 267 3.7 03:24:16 10° ENE 03:30:40 54° SE 03:37:01 10° SSW
IRAS Rocket 4.3 03:26:18 10° NNE 03:31:49 82° WNW 03:37:19 10° SSW
